Location: Camp Crooked Creek
(37.9149°N, 85.6607°W)
Time: 09:44:24
(UTC-05:00)

Amateur Radio Satellites - All Passes

Search period start: 16 December 2017 09:14
Search period end: 17 December 2017 09:14
Location: Camp Crooked Creek, 37.9149°N, 85.6607°W

Satellite Date Start Highest point End Downlink Frequencies (MHz)
Time Altitude Azimuth
DELFI C3 16 Dec 09:21:30 09:23:58 16° 93° (E) 09:26:24 145.870
UWE-3 16 Dec 09:52:18 09:54:00 12° 295° (WNW) 09:55:44 435.000/436.395/437.385
nSIGHT-1 16 Dec 09:58:57 10:00:43 14° 129° (SE) 10:02:30 .
HO-68 16 Dec 10:01:11 10:04:32 14° 306° (NW) 10:07:52 435.675
ZACube-1 16 Dec 10:12:47 10:15:00 14° 294° (WNW) 10:17:14 437.345
O/OREOS (USA 219) 16 Dec 10:19:15 10:20:03 10° 307° (NW) 10:20:52 437.305
Oscar 11 16 Dec 10:28:58 10:31:33 16° 294° (WNW) 10:34:08 .
TIGRISAT 16 Dec 10:34:48 10:38:26 27° 264° (W) 10:42:03 435.000
UNISAT 6 16 Dec 10:38:56 10:42:17 22° 265° (W) 10:45:38 437.425
Max Valier Satellite 16 Dec 10:41:52 10:45:36 68° 284° (WNW) 10:49:18 145.860
PRISM 16 Dec 10:42:32 10:46:41 70° 258° (WSW) 10:50:50 437.425
ISS 16 Dec 10:46:08 10:49:09 34° 134° (SE) 10:52:10 437.550
EO-79 16 Dec 10:53:59 10:56:36 16° 67° (ENE) 10:59:12 145.935-145.965
DELFI C3 16 Dec 10:55:15 10:58:45 32° 288° (WNW) 11:02:15 145.870
AIST 2D 16 Dec 11:02:31 11:05:59 64° 76° (ENE) 11:09:29 435.315
EO-88 16 Dec 11:05:37 11:09:10 48° 285° (WNW) 11:12:42 145.990 - 145.960
ESTCUBE 1 16 Dec 11:15:56 11:19:03 18° 93° (E) 11:22:09 437.505/2401.250
POLYITAN 1 16 Dec 11:16:22 11:19:57 29° 70° (ENE) 11:23:34 437.675
LO-87 16 Dec 11:30:16 11:33:28 31° 98° (E) 11:36:40 145.935 - 145.965
nSIGHT-1 16 Dec 11:33:29 11:36:36 49° 324° (NW) 11:39:45 .
QB50P2 16 Dec 11:41:35 11:45:44 65° 75° (ENE) 11:49:54 145.880/145.840
DUCHIFAT 1 16 Dec 11:43:48 11:47:45 45° 73° (ENE) 11:51:43 145.980
NANOSAT C BR1 16 Dec 12:11:09 12:15:18 71° 258° (WSW) 12:19:28 145.865
BUGSAT 1 16 Dec 12:17:34 12:20:49 24° 70° (ENE) 12:24:04 437.445
ISS 16 Dec 12:22:52 12:25:40 25° 330° (NNW) 12:28:28 437.550
Gurwin Techsat 1B 16 Dec 12:25:16 12:28:24 16° 63° (ENE) 12:31:34 435.225
EO-79 16 Dec 12:28:07 12:32:01 38° 262° (W) 12:35:56 145.935-145.965
VELOX 1 16 Dec 12:40:51 12:44:08 20° 95° (E) 12:47:23 145.980
ESTCUBE 1 16 Dec 12:51:45 12:55:57 38° 289° (WNW) 13:00:09 437.505/2401.250
POLYITAN 1 16 Dec 12:52:35 12:55:43 20° 265° (W) 12:58:52 437.675
LO-87 16 Dec 13:04:47 13:06:33 13° 292° (WNW) 13:08:20 145.935 - 145.965
Oscar 19 16 Dec 13:05:11 13:10:08 51° 72° (ENE) 13:15:08 437.125/150
SPROUT 16 Dec 13:05:45 13:09:59 71° 101° (E) 13:14:13 437.525
NO-84 16 Dec 13:11:03 13:14:28 33° 38° (NE) 13:18:08 435.350 FM
AO-91 16 Dec 13:11:24 13:16:11 56° 75° (ENE) 13:20:32 145.960
nSIGHT-1 16 Dec 13:12:17 13:13:26 11° 342° (NNW) 13:14:34 .
DUCHIFAT 1 16 Dec 13:21:43 13:23:37 13° 268° (W) 13:25:31 145.980
YUBILEINY 16 Dec 13:25:38 13:32:52 27° 69° (ENE) 13:39:59 435.215
DX 1 16 Dec 13:31:08 13:33:30 14° 93° (E) 13:35:50 434.975-435.025
50 SAT 16 Dec 13:36:59 13:38:29 13° 94° (E) 13:39:58 437.505
BUGSAT 1 16 Dec 13:52:50 13:56:04 23° 264° (W) 13:59:18 437.445
RS-15 16 Dec 13:56:19 14:07:38 46° 108° (ESE) 14:18:54 29.354- 29.394
Gurwin Techsat 1B 16 Dec 14:02:31 14:07:47 63° 258° (WSW) 14:13:04 435.225
VELOX 1 16 Dec 14:16:40 14:20:35 32° 290° (WNW) 14:24:29 145.980
ITAMSAT 1 16 Dec 14:23:52 14:26:58 16° 63° (ENE) 14:30:03 435.822/435.867
AO-7 16 Dec 14:34:50 14:42:42 50° 65° (ENE) 14:50:38 .
M-CUBED/EXP-1 PRIME 16 Dec 14:39:13 14:43:07 33° 65° (ENE) 14:47:12 437.505
SO-50 16 Dec 14:40:17 14:43:58 26° 112° (ESE) 14:47:41 436.795
UKube-1 16 Dec 14:45:30 14:49:47 63° 102° (ESE) 14:54:02 .
Oscar 19 16 Dec 14:46:25 14:49:43 17° 267° (W) 14:53:02 437.125/150
NO-84 16 Dec 14:48:19 14:51:42 28° 232° (SW) 14:55:15 435.350 FM
AO-91 16 Dec 14:50:27 14:52:45 13° 266° (W) 14:55:00 145.960
MOZHAYETS 4 16 Dec 14:54:58 14:58:01 17° 93° (E) 15:01:03
DX 1 16 Dec 15:05:44 15:09:52 44° 288° (WNW) 15:13:58 434.975-435.025
50 SAT 16 Dec 15:07:50 15:10:24 23° 289° (WNW) 15:12:58 437.505
YUBILEINY 16 Dec 15:21:33 15:30:11 62° 269° (W) 15:38:44 435.215
BEESAT 16 Dec 15:33:03 15:37:10 29° 97° (E) 15:41:17 436.000
ITAMSAT 1 16 Dec 16:00:44 16:05:53 61° 258° (WSW) 16:11:03 435.822/435.867
ITUPSAT 1 16 Dec 16:02:22 16:07:05 58° 101° (E) 16:11:48 437.325
RS-15 16 Dec 16:07:52 16:19:53 56° 309° (NW) 16:31:51 29.354- 29.394
M-CUBED/EXP-1 PRIME 16 Dec 16:14:04 16:17:29 23° 261° (W) 16:21:03 437.505
DOVE 4 16 Dec 16:16:47 16:21:37 38° 72° (ENE) 16:26:20 437.250
SO-50 16 Dec 16:20:19 16:24:17 31° 309° (NW) 16:28:18 436.795
CUBESAT XI-V 16 Dec 16:22:48 16:27:08 35° 97° (E) 16:31:25 437.345
UKube-1 16 Dec 16:23:59 16:25:13 11° 297° (WNW) 16:26:27 .
nSIGHT-1 16 Dec 16:26:17 16:28:16 15° 23° (NNE) 16:30:14 .
AO-7 16 Dec 16:28:15 16:35:35 35° 262° (W) 16:43:01 .
MOZHAYETS 4 16 Dec 16:30:57 16:35:19 42° 288° (WNW) 16:39:40
HO-68 16 Dec 16:55:13 16:57:33 12° 52° (NE) 16:59:53 435.675
O/OREOS (USA 219) 16 Dec 17:10:21 17:11:54 12° 54° (NE) 17:13:26 437.305
BEESAT 16 Dec 17:10:50 17:14:49 27° 292° (WNW) 17:18:48 436.000
ISS 16 Dec 17:15:28 17:18:18 26° 30° (NNE) 17:21:07 437.550
LilacSat-2 16 Dec 17:22:45 17:26:01 28° 71° (ENE) 17:29:19 437.200
NUDT-PHONESAT 16 Dec 17:29:27 17:32:11 20° 70° (ENE) 17:34:56 437.300
XW-2D 16 Dec 17:33:50 17:37:18 36° 73° (ENE) 17:40:49 145.860 - 145.880
KAITUO 1B 16 Dec 17:36:40 17:39:49 26° 71° (ENE) 17:43:00 145.475/437.950
ITUPSAT 1 16 Dec 17:41:50 17:44:23 14° 297° (WNW) 17:46:56 437.325
CUTE-I 16 Dec 17:41:59 17:47:01 43° 71° (ENE) 17:52:05 437.470
PCSat 16 Dec 17:43:21 17:47:31 23° 106° (ESE) 17:51:42 145.827
XW-2B 16 Dec 17:49:32 17:53:14 55° 75° (ENE) 17:56:58 145.730 - 145.750
DOVE 4 16 Dec 17:55:05 17:59:18 24° 266° (W) 18:03:26 437.250
XW-2F 16 Dec 17:59:34 18:03:18 72° 77° (ENE) 18:07:06 145.980 - 146.000
CUBESAT XI-V 16 Dec 18:00:40 18:04:15 22° 292° (WNW) 18:07:47 437.345
nSIGHT-1 16 Dec 18:01:37 18:04:51 87° 220° (SW) 18:08:03 .
CUTE 1.7 + AOD 2 16 Dec 18:03:53 18:07:03 21° 68° (ENE) 18:10:14 437.475
KKS-1 16 Dec 18:04:37 18:09:04 81° 104° (ESE) 18:13:28 437.445
XW-2C 16 Dec 18:17:03 18:20:46 59° 260° (W) 18:24:33 145.795 - 145.815
RS-15 16 Dec 18:27:18 18:36:01 21° 339° (NNW) 18:44:35 29.354- 29.394
HO-68 16 Dec 18:36:50 18:43:56 67° 71° (ENE) 18:51:03 435.675
STARS 16 Dec 18:41:15 18:45:37 80° 102° (ESE) 18:49:58 437.465
O/OREOS (USA 219) 16 Dec 18:47:20 18:51:49 70° 252° (WSW) 18:56:15 437.305
ISS 16 Dec 18:51:49 18:54:48 33° 227° (SW) 18:57:46 437.550
LilacSat-2 16 Dec 18:57:41 19:00:17 17° 266° (W) 19:02:53 437.200
XW-2A 16 Dec 19:02:48 19:05:13 19° 70° (ENE) 19:07:40 145.665 - 145.685
NUDT-PHONESAT 16 Dec 19:02:55 19:05:52 23° 265° (W) 19:08:51 437.300
UWE-3 16 Dec 19:09:10 19:12:57 35° 72° (ENE) 19:16:43 435.000/436.395/437.385
XW-2D 16 Dec 19:09:46 19:11:35 13° 268° (W) 19:13:26 145.860 - 145.880
SEEDS 16 Dec 19:10:51 19:15:03 73° 76° (ENE) 19:19:17 437.485
KAITUO 1B 16 Dec 19:11:11 19:13:46 18° 266° (W) 19:16:21 145.475/437.950
CUBEBUG 2 16 Dec 19:13:52 19:18:04 78° 76° (ENE) 19:22:12 437.445
STRAND 1 16 Dec 19:16:30 19:20:19 21° 94° (E) 19:24:08 437.568
AAUSAT CUBESAT 2 16 Dec 19:23:04 19:26:58 40° 73° (ENE) 19:30:54 437.432
CUTE-I 16 Dec 19:23:07 19:27:12 22° 266° (W) 19:31:18 437.470
PCSat 16 Dec 19:25:25 19:30:34 45° 303° (WNW) 19:35:47 145.827
ZACube-1 16 Dec 19:29:12 19:32:49 30° 71° (ENE) 19:36:26 437.345
BEESAT 3 16 Dec 19:31:02 19:34:41 36° 115° (ESE) 19:38:22 437.485
CUTE 1.7 + AOD 2 16 Dec 19:38:54 19:42:40 30° 264° (W) 19:46:27 437.475
Oscar 11 16 Dec 19:44:49 19:48:25 27° 70° (ENE) 19:52:04 .
AO-73 16 Dec 20:01:10 20:05:14 64° 75° (ENE) 20:09:20 145.935
BEESAT 2 16 Dec 20:16:44 20:20:14 30° 114° (ESE) 20:23:48 435.950
FO-29 16 Dec 20:20:38 20:26:23 31° 93° (E) 20:31:32 435.910
FALCONSAT 3 16 Dec 20:24:21 20:24:54 10° 150° (SSE) 20:25:28 435.103
HO-68 16 Dec 20:26:58 20:32:07 21° 267° (W) 20:37:19 435.675
XW-2A 16 Dec 20:35:21 20:37:47 19° 265° (W) 20:40:14 145.665 - 145.685
UWE-3 16 Dec 20:46:55 20:49:30 16° 267° (W) 20:52:05 435.000/436.395/437.385
RS-15 16 Dec 20:47:03 20:55:03 19° 16° (NNE) 21:02:48 29.354- 29.394
STRAND 1 16 Dec 20:54:52 20:59:37 41° 289° (WNW) 21:04:21 437.568
AAUSAT CUBESAT 2 16 Dec 21:00:14 21:02:34 15° 268° (W) 21:04:55 437.432
ZACube-1 16 Dec 21:06:11 21:09:07 19° 266° (W) 21:12:04 437.345
BEESAT 3 16 Dec 21:09:23 21:12:19 19° 311° (NW) 21:15:15 437.485
Max Valier Satellite 16 Dec 21:18:38 21:22:00 36° 73° (ENE) 21:25:23 145.860
Oscar 11 16 Dec 21:21:02 21:24:29 23° 265° (W) 21:27:59 .
AO-85 16 Dec 21:32:25 21:36:07 46° 116° (ESE) 21:40:00 145.980
DELFI C3 16 Dec 21:37:35 21:41:35 79° 259° (W) 21:45:35 145.870
EO-88 16 Dec 21:40:50 21:44:20 47° 75° (ENE) 21:47:52 145.990 - 145.960
BEESAT 2 16 Dec 21:54:45 21:57:58 23° 310° (NW) 22:01:13 435.950
FALCONSAT 3 16 Dec 22:00:03 22:03:24 33° 163° (SSE) 22:06:45 435.103
FO-29 16 Dec 22:05:21 22:11:32 39° 293° (WNW) 22:17:02 435.910
LO-87 16 Dec 22:06:48 22:07:26 10° 66° (ENE) 22:08:04 145.935 - 145.965
ESTCUBE 1 16 Dec 22:14:33 22:16:57 14° 64° (ENE) 22:19:21 437.505/2401.250
PRISM 16 Dec 22:26:26 22:29:10 17° 94° (E) 22:31:51 437.425
TIGRISAT 16 Dec 22:26:39 22:31:01 67° 101° (E) 22:35:28 435.000
UNISAT 6 16 Dec 22:30:36 22:35:00 82° 104° (ESE) 22:39:28 437.425
Max Valier Satellite 16 Dec 22:54:28 22:55:57 12° 268° (W) 22:57:26 145.860
RS-15 16 Dec 23:00:17 23:11:38 48° 47° (NE) 23:22:21 29.354- 29.394
SO-50 16 Dec 23:12:52 23:16:07 18° 46° (NE) 23:19:23 436.795
AO-85 16 Dec 23:14:21 23:16:48 16° 315° (NW) 23:19:20 145.980
QB50P2 16 Dec 23:30:00 23:31:39 12° 92° (E) 23:33:17 145.880/145.840
VELOX 1 16 Dec 23:36:56 23:39:36 16° 65° (ENE) 23:42:16 145.980
LO-87 16 Dec 23:37:03 23:40:24 41° 261° (W) 23:43:47 145.935 - 145.965
FALCONSAT 3 16 Dec 23:38:36 23:42:14 58° 178° (S) 23:45:52 435.103
ESTCUBE 1 16 Dec 23:48:51 23:53:15 52° 260° (W) 23:57:42 437.505/2401.250
SPROUT 16 Dec 23:56:59 00:00:58 41° 73° (ENE) 00:04:57 437.525
NANOSAT C BR1 16 Dec 23:57:40 00:00:47 20° 95° (E) 00:03:54 145.865
PRISM 17 Dec 00:00:49 00:04:28 32° 289° (WNW) 00:08:06 437.425
AIST 2D 17 Dec 00:01:46 00:05:20 79° 281° (W) 00:08:51 435.315
TIGRISAT 17 Dec 00:06:03 00:07:09 11° 296° (WNW) 00:08:15 435.000
EO-79 17 Dec 00:14:04 00:17:58 35° 98° (E) 00:21:51 145.935-145.965
DX 1 17 Dec 00:26:21 00:27:34 11° 63° (ENE) 00:28:47 434.975-435.025
POLYITAN 1 17 Dec 00:37:31 00:41:44 69° 101° (E) 00:45:58 437.675
SO-50 17 Dec 00:52:19 00:56:55 57° 243° (WSW) 01:01:33 436.795
QB50P2 17 Dec 01:03:35 01:07:40 50° 286° (WNW) 01:11:46 145.880/145.840
DUCHIFAT 1 17 Dec 01:04:26 01:08:37 75° 284° (WNW) 01:12:49 145.980
VELOX 1 17 Dec 01:11:22 01:15:38 45° 260° (W) 01:19:56 145.980
RS-15 17 Dec 01:13:06 01:24:06 51° 250° (WSW) 01:34:36 29.354- 29.394
FALCONSAT 3 17 Dec 01:17:37 01:21:07 42° 193° (SSW) 01:24:37 435.103
Oscar 19 17 Dec 01:19:14 01:23:05 21° 94° (E) 01:26:55 437.125/150
50 SAT 17 Dec 01:31:04 01:34:10 57° 75° (ENE) 01:37:17 437.505
NANOSAT C BR1 17 Dec 01:32:48 01:36:29 30° 289° (WNW) 01:40:09 145.865
SPROUT 17 Dec 01:34:36 01:37:00 15° 267° (W) 01:39:24 437.525
BUGSAT 1 17 Dec 01:34:58 01:38:55 51° 100° (E) 01:42:54 437.445
UKube-1 17 Dec 01:37:55 01:41:58 41° 72° (ENE) 01:46:03 .
EO-79 17 Dec 01:50:37 01:53:25 18° 293° (WNW) 01:56:13 145.935-145.965
MOZHAYETS 4 17 Dec 01:56:00 01:58:21 14° 64° (ENE) 02:00:43
DX 1 17 Dec 01:58:49 02:03:09 66° 258° (WSW) 02:07:32 434.975-435.025
Gurwin Techsat 1B 17 Dec 02:20:27 02:25:42 60° 101° (E) 02:30:56 435.225
YUBILEINY 17 Dec 02:24:30 02:32:01 33° 84° (E) 02:39:33 435.215
PCSat 17 Dec 02:32:50 02:36:02 16° 46° (NE) 02:39:12 145.827
BEESAT 17 Dec 02:37:45 02:41:46 28° 68° (ENE) 02:45:48 436.000
AO-91 17 Dec 02:39:44 02:43:00 44° 286° (WNW) 02:46:14 145.960
AO-7 17 Dec 02:40:28 02:45:08 16° 91° (E) 02:49:45 .
FALCONSAT 3 17 Dec 02:57:30 02:59:43 15° 207° (SSW) 03:01:56 435.103
Oscar 19 17 Dec 02:57:38 03:02:33 43° 289° (WNW) 03:07:26 437.125/150
ITUPSAT 1 17 Dec 03:07:09 03:11:47 55° 73° (ENE) 03:16:26 437.325
BUGSAT 1 17 Dec 03:12:19 03:13:49 12° 295° (WNW) 03:15:18 437.445
UKube-1 17 Dec 03:15:35 03:18:08 15° 267° (W) 03:20:42 .
CUBESAT XI-V 17 Dec 03:24:21 03:28:19 29° 70° (ENE) 03:32:21 437.345
MOZHAYETS 4 17 Dec 03:30:34 03:35:01 54° 260° (W) 03:39:30
BEESAT 3 17 Dec 03:50:01 03:52:10 14° 46° (NE) 03:54:17 437.485
M-CUBED/EXP-1 PRIME 17 Dec 03:53:30 03:57:22 29° 101° (E) 04:00:58 437.505
Gurwin Techsat 1B 17 Dec 04:01:49 04:05:07 17° 297° (WNW) 04:08:25 435.225
JUGNU 17 Dec 04:11:14 04:13:26 12° 176° (S) 04:15:37 437.505
PCSat 17 Dec 04:14:39 04:20:06 83° 244° (WSW) 04:25:30 145.827
ITAMSAT 1 17 Dec 04:15:17 04:20:21 54° 100° (E) 04:25:24 435.822/435.867
BEESAT 17 Dec 04:15:25 04:19:27 27° 264° (W) 04:23:30 436.000
YUBILEINY 17 Dec 04:19:55 04:28:23 51° 283° (WNW) 04:36:58 435.215
AO-7 17 Dec 04:30:25 04:38:51 88° 110° (ESE) 04:47:14 .
BEESAT 2 17 Dec 04:36:43 04:38:37 13° 45° (NE) 04:40:30 435.950
ITUPSAT 1 17 Dec 04:47:34 04:49:55 14° 268° (W) 04:52:17 437.325
KKS-1 17 Dec 05:00:29 05:04:53 59° 74° (ENE) 05:09:17 437.445
CUBESAT XI-V 17 Dec 05:01:44 05:05:37 26° 265° (W) 05:09:32 437.345
BEESAT 3 17 Dec 05:26:11 05:30:00 52° 243° (WSW) 05:33:45 437.485
M-CUBED/EXP-1 PRIME 17 Dec 05:28:00 05:31:31 23° 298° (WNW) 05:34:52 437.505
STARS 17 Dec 05:35:41 05:39:58 55° 74° (ENE) 05:44:16 437.465
XW-2C 17 Dec 05:52:11 05:54:33 16° 93° (E) 05:56:53 145.795 - 145.815
DOVE 4 17 Dec 05:55:03 05:59:26 67° 284° (WNW) 06:03:35 437.250
ITAMSAT 1 17 Dec 05:55:58 05:59:22 18° 296° (WNW) 06:02:43 435.822/435.867
JUGNU 17 Dec 05:59:38 06:01:32 12° 186° (S) 06:03:27 437.505
NO-84 17 Dec 06:01:31 06:04:24 76° 135° (SE) 06:07:30 435.350 FM
CUTE-I 17 Dec 06:01:35 06:05:21 19° 93° (E) 06:09:05 437.470
AO-85 17 Dec 06:04:13 06:08:29 31° 52° (NE) 06:13:00 145.980
HO-68 17 Dec 06:09:53 06:12:26 12° 89° (E) 06:14:58 435.675
BEESAT 2 17 Dec 06:12:46 06:16:44 63° 243° (WSW) 06:20:38 435.950
AO-7 17 Dec 06:24:50 06:30:32 21° 307° (NW) 06:36:15 .
STRAND 1 17 Dec 06:30:37 06:34:48 26° 67° (ENE) 06:39:00 437.568
LilacSat-2 17 Dec 06:30:59 06:34:48 53° 100° (E) 06:38:35 437.200
FO-29 17 Dec 06:31:37 06:35:55 16° 57° (ENE) 06:40:13 435.910
NUDT-PHONESAT 17 Dec 06:33:44 06:37:09 33° 97° (E) 06:40:33 437.300
KKS-1 17 Dec 06:40:21 06:41:46 11° 269° (W) 06:43:11 437.445
XW-2D 17 Dec 06:41:25 06:45:15 71° 100° (E) 06:49:04 145.860 - 145.880
KAITUO 1B 17 Dec 06:42:22 06:46:03 46° 99° (E) 06:49:41 145.475/437.950
SRMSAT 17 Dec 06:52:00 06:54:17 12° 174° (S) 06:56:33 437.500
XW-2B 17 Dec 06:57:24 07:01:16 75° 282° (WNW) 07:05:04 145.730 - 145.750
SEEDS 17 Dec 06:57:49 07:00:01 14° 92° (E) 07:02:12 437.485
CUBEBUG 2 17 Dec 07:06:44 07:09:44 18° 94° (E) 07:12:48 437.445
XW-2F 17 Dec 07:06:59 07:10:46 59° 285° (WNW) 07:14:31 145.980 - 146.000
STARS 17 Dec 07:14:58 07:16:35 12° 268° (W) 07:18:12 437.465
O/OREOS (USA 219) 17 Dec 07:20:15 07:23:07 17° 100° (E) 07:26:01 437.305
CUTE 1.7 + AOD 2 17 Dec 07:24:46 07:28:57 50° 99° (E) 07:33:05 437.475
XW-2C 17 Dec 07:25:20 07:28:46 31° 288° (WNW) 07:32:11 145.795 - 145.815
CUTE-I 17 Dec 07:40:31 07:45:36 48° 289° (WNW) 07:50:40 437.470
NO-84 17 Dec 07:40:43 07:42:04 12° 333° (NNW) 07:43:26 435.350 FM
AO-85 17 Dec 07:44:29 07:48:55 33° 246° (WSW) 07:53:33 145.980
AO-73 17 Dec 07:51:43 07:54:12 15° 93° (E) 07:56:41 145.935
HO-68 17 Dec 07:53:52 08:01:05 82° 105° (ESE) 08:08:13 435.675
XW-2A 17 Dec 07:57:36 08:00:28 25° 96° (E) 08:03:21 145.665 - 145.685
LilacSat-2 17 Dec 08:07:56 08:08:33 10° 295° (WNW) 08:09:08 437.200
NUDT-PHONESAT 17 Dec 08:08:33 08:10:40 15° 292° (WNW) 08:12:47 437.300
STRAND 1 17 Dec 08:09:11 08:13:48 34° 263° (W) 08:18:27 437.568
FO-29 17 Dec 08:11:57 08:19:42 77° 74° (ENE) 08:27:32 435.910
KAITUO 1B 17 Dec 08:18:27 08:19:33 11° 294° (WNW) 08:20:39 145.475/437.950
SEEDS 17 Dec 08:31:51 08:35:53 43° 287° (WNW) 08:39:52 437.485
UWE-3 17 Dec 08:35:40 08:40:01 77° 285° (WNW) 08:44:29 435.000/436.395/437.385
SRMSAT 17 Dec 08:40:08 08:42:34 13° 185° (S) 08:45:01 437.500
AAUSAT CUBESAT 2 17 Dec 08:41:38 08:45:48 83° 285° (WNW) 08:49:56 437.432
CUBEBUG 2 17 Dec 08:42:29 08:46:24 35° 288° (WNW) 08:50:26 437.445
ZACube-1 17 Dec 08:54:05 08:58:29 87° 97° (E) 09:02:59 437.345
O/OREOS (USA 219) 17 Dec 08:57:47 09:02:08 42° 295° (WNW) 09:06:30 437.305
CUTE 1.7 + AOD 2 17 Dec 09:02:14 09:04:18 13° 295° (WNW) 09:06:23 437.475
